This demonstration page uses our WeatherBlox Daily Observations layout. Learn more.

Left ArrowRight Arrow

Hourly Observations for August 23, 2022

Temp ( °F °C ) Dew Point ( °F °C ) Humidity (%) Winds ( mph kmh ) Pressure ( in mb ) Visibility ( mi km ) Precip ( " mm )
12:52 am 00:52 Clear 70 21.1 63 17.2 78 78 ENE 9 15 29.98 1015 10 16 0.00 0.00
1:52 am 01:52 Clear 69 20.6 62 16.7 78 78 ENE 7 11 29.97 1015 10 16 0.00 0.00
2:52 am 02:52 Clear 66 18.9 62 16.7 87 87 ESE 3 6 29.96 1015 10 16 0.00 0.00
3:52 am 03:52 Clear 67 19.4 63 17.2 87 87 Calm 29.96 1015 10 16 0.00 0.00
4:52 am 04:52 Clear 65 18.3 62 16.7 90 90 NE 3 6 29.97 1015 10 16 0.00 0.00
5:52 am 05:52 Partly Cloudy 64 17.8 62 16.7 93 93 SE 3 6 29.97 1015 10 16 0.00 0.00
6:52 am 06:52 Mostly Sunny 65 18.3 62 16.7 90 90 SE 5 7 29.98 1015 10 16 0.00 0.00
7:52 am 07:52 Sunny 69 20.6 65 18.3 87 87 SE 5 7 29.98 1015 10 16 0.00 0.00
8:52 am 08:52 Sunny 75 23.9 66 18.9 74 74 ESE 6 9 29.99 1016 10 16 0.00 0.00
9:52 am 09:52 Sunny 78 25.6 66 18.9 67 67 VRB 7 11 29.99 1016 10 16 0.00 0.00
10:52 am 10:52 Mostly Cloudy 79 26.1 65 18.3 62 62 SSE 5 7 29.99 1016 10 16 0.00 0.00
11:52 am 11:52 Partly Cloudy 81 27.2 63 17.2 54 54 ESE 8 13 29.98 1015 10 16 0.00 0.00
12:52 pm 12:52 Partly Cloudy 83 28.3 62 16.7 49 49 undefined N/A 29.97 1015 10 16 0.00 0.00
1:52 pm 13:52 Partly Cloudy 82 27.8 61 16.1 49 49 ENE 9 15 29.96 1014 10 16 0.00 0.00
2:52 pm 14:52 Partly Cloudy 83 28.3 61 16.1 48 48 undefined N/A 29.94 1014 10 16 0.00 0.00
3:52 pm 15:52 Mostly Cloudy 84 28.9 61 16.1 46 46 SE 5 7 29.93 1014 10 16 0.00 0.00
4:52 pm 16:52 Mostly Cloudy 83 28.3 59 15 44 44 NE 5 7 29.92 1013 10 16 0.00 0.00
5:52 pm 17:52 Sunny 84 28.9 60 15.6 45 45 E 9 15 29.91 1013 10 16 0.00 0.00
6:52 pm 18:52 Partly Cloudy 83 28.3 59 15 44 44 NE 5 7 29.92 1013 10 16 0.00 0.00
7:52 pm 19:52 Cloudy 80 26.7 60 15.6 51 51 E 7 11 29.92 1013 10 16 0.00 0.00
8:52 pm 20:52 Mostly Clear 77 25 61 16.1 58 58 E 6 9 29.94 1014 10 16 0.00 0.00
9:52 pm 21:52 Mostly Cloudy 73 22.8 62 16.7 68 68 E 6 9 29.95 1014 10 16 0.00 0.00
10:52 pm 22:52 Clear 71 21.7 62 16.7 73 73 ESE 6 9 29.96 1015 10 16 0.00 0.00
11:52 pm 23:52 Clear 73 22.8 62 16.7 68 68 E 3 6 29.97 1015 10 16 0.00 0.00

Powered by AerisWeather